Weather reports worldwide

Advertisment
Hohenfels, Germany (10775): temperature & dewpoint: 10.08.2018 13:00:00 - 16.08.2018 13:00:00 (CEST)Hohenfels, Germany (10775): wind speed: 10.08.2018 13:00:00 - 16.08.2018 13:00:00 (CEST)Hohenfels, Germany (10775): wind direction: 10.08.2018 13:00:00 - 16.08.2018 13:00:00 (CEST)Hohenfels, Germany (10775): reduced air pressure: 10.08.2018 13:00:00 - 16.08.2018 13:00:00 (CEST)Hohenfels, Germany (10775): visibility: 10.08.2018 13:00:00 - 16.08.2018 13:00:00 (CEST)Hohenfels, Germany (10775): precipitation: 10.08.2018 13:00:00 - 16.08.2018 13:00:00 (CEST)
Date & Time tt [°C] td [°C] ff [km/h] ff [kn] dd ppp [hPa] vv [km] rr [mm]
16.08.2018 13:00:00 26,7 13,8 11 6 ESE 1017,3 10 0,0
16.08.2018 12:00:00 25,5 14,3 11 6 SE 1018,0 10 0,0
16.08.2018 11:00:00 23,7 15,5 0 0 N 1018,3 10 0,0
16.08.2018 10:00:00 21,0 14,9 0 0 N 1018,8 10 -
16.08.2018 09:00:00 17,6 13,7 0 0 N 1019,2 10 -
16.08.2018 08:00:00 13,2 12,6 0 0 N 1019,4 10 -
16.08.2018 07:00:00 11,1 10,9 0 0 N 1019,4 10 -
16.08.2018 06:00:00 10,7 10,5 0 0 N 1019,4 10 -
16.08.2018 05:00:00 11,4 11,2 0 0 N 1019,4 10 -
16.08.2018 04:00:00 11,3 11,1 0 0 N 1019,7 10 -
16.08.2018 03:00:00 12,1 11,9 0 0 N 1020,0 10 -
16.08.2018 02:00:00 12,8 12,2 0 0 N 1020,2 10 -
16.08.2018 01:00:00 13,8 12,4 5 3 NNW 1020,4 10 -
16.08.2018 00:00:00 14,1 12,1 0 0 N 1020,4 10 -
15.08.2018 23:00:00 15,9 12,4 0 0 N 1020,4 10 -
15.08.2018 22:00:00 17,6 12,7 0 0 N 1019,9 10 -
15.08.2018 21:00:00 19,8 13,0 0 0 N 1019,5 10 -
15.08.2018 20:00:00 22,8 12,7 0 0 N 1019,2 10 -
15.08.2018 19:00:00 24,4 12,7 9 5 WNW 1018,8 10 -
15.08.2018 18:00:00 24,7 12,9 8 4 NW 1019,2 10 -
15.08.2018 17:00:00 24,9 13,4 11 6 WNW 1019,5 10 -
15.08.2018 16:00:00 24,1 13,6 8 4 N 1019,7 10 -
15.08.2018 15:00:00 24,8 12,7 11 6 WSW 1019,5 10 -
15.08.2018 14:00:00 24,3 14,1 9 5 SW 1019,9 10 -
15.08.2018 13:00:00 22,8 14,9 15 8 W 1020,2 10 -
15.08.2018 12:00:00 21,4 14,8 8 4 SW 1020,5 10 -
15.08.2018 11:00:00 20,0 15,4 8 4 W 1020,5 10 -
15.08.2018 10:00:00 19,1 15,7 0 0 N 1020,2 10 -
15.08.2018 09:00:00 18,1 15,5 8 4 W 1020,0 10 -
15.08.2018 08:00:00 15,7 15,1 0 0 N 1019,7 10 -
15.08.2018 07:00:00 14,4 14,2 0 0 N 1019,5 10 -
15.08.2018 06:00:00 13,1 12,9 0 0 N 1019,0 10 -
15.08.2018 05:00:00 13,2 13,0 0 0 N 1019,4 10 -
15.08.2018 04:00:00 12,7 12,5 0 0 N 1019,0 10 -
15.08.2018 03:00:00 13,3 13,1 0 0 N 1018,9 10 -
15.08.2018 02:00:00 14,2 13,4 0 0 N 1018,3 10 -
15.08.2018 01:00:00 15,0 13,7 8 4 W 1018,3 10 -
15.08.2018 00:00:00 17,6 13,7 0 0 N 1017,8 10 -
14.08.2018 23:00:00 18,4 13,7 0 0 N 1017,5 10 -
14.08.2018 22:00:00 19,2 13,8 8 4 W 1017,1 10 -
14.08.2018 21:00:00 18,5 14,2 0 0 N 1017,0 10 -
14.08.2018 20:00:00 20,0 13,9 8 4 WNW 1016,3 10 -
14.08.2018 19:00:00 21,0 13,7 15 8 NNW 1015,6 10 -
14.08.2018 18:00:00 23,2 12,8 16 9 WSW 1015,1 10 -
14.08.2018 17:00:00 23,0 12,6 15 8 W 1014,7 10 -
14.08.2018 16:00:00 22,3 12,8 16 9 W 1014,9 10 -
14.08.2018 15:00:00 21,5 13,4 11 6 W 1014,9 10 -
14.08.2018 14:00:00 22,1 13,4 15 8 WNW 1014,7 10 -
14.08.2018 13:00:00 21,3 14,0 13 7 W 1014,4 10 -
14.08.2018 12:00:00 20,8 14,0 18 10 W 1014,4 10 -
14.08.2018 11:00:00 20,2 15,2 15 8 W 1014,4 10 -
14.08.2018 10:00:00 18,8 15,3 18 10 W 1014,2 10 -
14.08.2018 09:00:00 17,8 16,8 9 5 WSW 1013,9 10 -
14.08.2018 08:00:00 16,1 16,1 0 0 N 1013,7 10 -
14.08.2018 07:00:00 15,1 15,1 0 0 N 1013,1 10 -
14.08.2018 06:00:00 14,6 14,6 0 0 N 1012,3 6 -
14.08.2018 05:00:00 15,5 15,5 0 0 N 1011,3 10 0,3
14.08.2018 04:00:00 14,6 14,6 0 0 N 1011,3 10 -
14.08.2018 03:00:00 14,4 14,4 0 0 N 1011,1 1,0 -
14.08.2018 02:00:00 15,2 15,2 0 0 N 1011,1 8 -
14.08.2018 01:00:00 16,4 16,4 0 0 N 1010,9 10 -
14.08.2018 00:00:00 16,5 16,3 0 0 N 1010,6 10 0,5
13.08.2018 23:00:00 17,3 17,1 9 5 SSW 1010,8 10 1,3
13.08.2018 22:00:00 17,4 17,4 0 0 N 1010,9 10 0,0
13.08.2018 21:00:00 17,6 17,4 0 0 N 1010,8 10 0,0
13.08.2018 20:00:00 17,8 17,6 0 0 N 1010,8 10 0,3
13.08.2018 19:00:00 18,4 18,2 0 0 N 1011,0 10 0,5
13.08.2018 18:00:00 22,3 15,4 16 9 W 1011,2 10 0,0
13.08.2018 17:00:00 25,2 14,0 18 10 W 1009,8 10 0,0
13.08.2018 16:00:00 26,3 14,1 21 11 WNW 1009,6 10 -
13.08.2018 15:00:00 29,0 13,6 15 8 WSW 1009,6 10 -
13.08.2018 14:00:00 28,8 12,6 22 12 W 1009,1 10 -
13.08.2018 13:00:00 29,0 13,2 8 4 WSW 1009,1 10 0,0
13.08.2018 12:00:00 28,7 13,0 11 6 SSW 1009,4 10 -
13.08.2018 11:00:00 28,0 15,6 11 6 SSE 1009,4 10 0,0
13.08.2018 10:00:00 25,1 15,1 8 4 SE 1009,6 10 0,0
13.08.2018 09:00:00 21,7 14,8 9 5 ESE 1010,3 10 -
13.08.2018 08:00:00 17,1 12,0 0 0 N 1010,3 10 -
13.08.2018 07:00:00 11,7 10,1 0 0 N 1010,8 10 -
13.08.2018 06:00:00 10,6 9,4 0 0 N 1010,8 10 -
13.08.2018 05:00:00 11,5 9,9 0 0 N 1010,8 10 -
13.08.2018 04:00:00 11,9 9,8 0 0 N 1011,1 10 -
13.08.2018 03:00:00 12,3 9,8 0 0 N 1011,7 10 -
13.08.2018 02:00:00 14,0 10,0 0 0 N 1011,8 10 -
13.08.2018 01:00:00 14,5 10,1 0 0 N 1012,1 10 -
13.08.2018 00:00:00 15,6 10,1 0 0 N 1012,5 10 -
12.08.2018 23:00:00 16,7 10,1 0 0 N 1012,8 10 -
12.08.2018 22:00:00 17,9 9,8 5 3 W 1013,0 10 -
12.08.2018 21:00:00 20,7 9,3 0 0 N 1013,0 10 -
12.08.2018 20:00:00 25,0 10,1 0 0 N 1013,0 10 -
12.08.2018 19:00:00 27,8 9,1 5 3 SSE 1013,5 10 -
12.08.2018 18:00:00 28,0 8,3 0 0 N 1013,9 10 -
12.08.2018 17:00:00 27,9 8,2 0 0 N 1014,9 10 0,0
12.08.2018 16:00:00 27,3 8,2 5 3 ESE 1015,6 10 -
12.08.2018 15:00:00 26,6 8,5 11 6 SE 1016,3 10 -
12.08.2018 14:00:00 25,5 7,6 9 5 E 1017,0 10 0,0
12.08.2018 13:00:00 24,8 8,3 13 7 E 1017,8 10 0,0
12.08.2018 12:00:00 24,0 8,4 8 4 ESE 1018,7 10 0,0
12.08.2018 11:00:00 22,0 9,5 9 5 SSE 1019,0 10 0,0
12.08.2018 10:00:00 19,9 10,3 8 4 E 1019,4 10 -
12.08.2018 09:00:00 17,0 10,1 5 3 ESE 1019,9 10 -
12.08.2018 08:00:00 12,2 8,7 0 0 N 1020,2 10 -
12.08.2018 07:00:00 8,1 7,2 0 0 N 1020,8 10 -
12.08.2018 06:00:00 7,3 6,7 0 0 N 1020,8 10 -
12.08.2018 05:00:00 8,4 7,0 0 0 N 1021,1 10 -
12.08.2018 04:00:00 9,3 7,7 0 0 N 1021,3 10 -
12.08.2018 03:00:00 9,5 7,6 0 0 N 1021,9 10 -
12.08.2018 02:00:00 10,8 7,8 0 0 N 1022,3 10 -
12.08.2018 01:00:00 12,0 7,9 0 0 N 1022,3 10 -
12.08.2018 00:00:00 12,4 7,5 0 0 N 1022,8 10 -
11.08.2018 23:00:00 13,6 7,6 0 0 N 1022,3 10 -
11.08.2018 22:00:00 15,4 7,7 0 0 N 1022,3 10 -
11.08.2018 21:00:00 17,7 7,7 8 4 W 1021,9 10 -
11.08.2018 20:00:00 21,7 6,8 8 4 WNW 1021,4 10 -
11.08.2018 19:00:00 23,7 6,5 11 6 W 1021,4 10 -
11.08.2018 18:00:00 24,4 6,6 16 9 WSW 1021,4 10 -
11.08.2018 17:00:00 23,7 7,3 16 9 WNW 1021,6 10 -
11.08.2018 16:00:00 23,9 7,9 11 6 SW 1022,3 10 -
11.08.2018 15:00:00 23,2 7,7 16 9 W 1022,8 10 -
11.08.2018 14:00:00 23,5 7,6 18 10 W 1022,6 10 -
11.08.2018 13:00:00 21,3 8,9 13 7 WSW 1023,5 10 -
11.08.2018 12:00:00 20,7 9,6 16 9 W 1023,3 10 -
11.08.2018 11:00:00 20,8 9,7 16 9 W - 10 -
11.08.2018 10:00:00 18,5 12,7 9 5 W - 10 -
11.08.2018 09:00:00 16,3 15,0 0 0 N - 10 -
11.08.2018 08:00:00 13,0 13,0 0 0 N - 8 -
11.08.2018 07:00:00 11,7 11,5 0 0 N - 5 -
11.08.2018 06:00:00 11,0 10,8 0 0 N - 10 -
11.08.2018 05:00:00 9,6 9,4 0 0 N - 10 -
11.08.2018 04:00:00 9,2 9,0 0 0 N - 10 -
11.08.2018 03:00:00 9,5 9,3 0 0 N - 10 -
11.08.2018 02:00:00 10,3 10,1 0 0 N - 10 -
11.08.2018 01:00:00 11,4 11,2 0 0 N - 10 -
11.08.2018 00:00:00 12,0 11,8 0 0 N - 10 -
10.08.2018 23:00:00 13,2 12,9 0 0 N - 10 -
10.08.2018 22:00:00 14,9 13,3 0 0 N - 10 -
10.08.2018 21:00:00 16,8 13,5 0 0 N - 10 -
10.08.2018 20:00:00 18,7 13,5 5 3 SE - 10 0,0
10.08.2018 19:00:00 19,3 13,2 9 5 SSE - 10 -
10.08.2018 18:00:00 20,9 12,8 13 7 E 1023,3 10 -
10.08.2018 17:00:00 21,9 11,0 5 3 SSE 1023,4 10 -
10.08.2018 16:00:00 20,3 10,4 9 5 W 1024,3 10 -
10.08.2018 15:00:00 19,4 11,7 5 3 SSW 1024,3 10 -
10.08.2018 14:00:00 18,5 12,5 0 0 N 1024,3 10 -
10.08.2018 13:00:00 17,2 12,9 0 0 N 1024,8 10 0,0

tt = temperature
td = dewpoint
ff = wind speed
dd = wind direction
ppp = reduced air pressure
vv = visibility
rr = precipitation

Next stations